Year,Month,Day,Hour,Minute,Value (Times are PST for insolation in W/m^2)
2017,01,21,00,00,0.00
2017,01,21,00,01,0.00
2017,01,21,00,02,0.00
2017,01,21,00,03,0.00
2017,01,21,00,04,0.00
2017,01,21,00,05,0.00
2017,01,21,00,06,0.00
2017,01,21,00,07,0.00
2017,01,21,00,08,0.00
2017,01,21,00,09,0.00
2017,01,21,00,10,0.00
2017,01,21,00,11,0.00
2017,01,21,00,12,0.00
2017,01,21,00,13,0.00
2017,01,21,00,14,0.00
2017,01,21,00,15,0.00
2017,01,21,00,16,0.00
2017,01,21,00,17,0.00
2017,01,21,00,18,0.00
2017,01,21,00,19,0.00
2017,01,21,00,20,0.00
2017,01,21,00,21,0.00
2017,01,21,00,22,0.00
2017,01,21,00,23,0.00
2017,01,21,00,24,0.00
2017,01,21,00,25,0.00
2017,01,21,00,26,0.00
2017,01,21,00,27,0.00
2017,01,21,00,28,0.00
2017,01,21,00,29,0.00
2017,01,21,00,30,0.00
2017,01,21,00,31,0.00
2017,01,21,00,32,0.00
2017,01,21,00,33,0.00
2017,01,21,00,34,0.00
2017,01,21,00,35,0.00
2017,01,21,00,36,0.00
2017,01,21,00,37,0.00
2017,01,21,00,38,0.00
2017,01,21,00,39,0.00
2017,01,21,00,40,0.00
2017,01,21,00,41,0.00
2017,01,21,00,42,0.00
2017,01,21,00,43,0.00
2017,01,21,00,44,0.00
2017,01,21,00,45,0.00
2017,01,21,00,46,0.00
2017,01,21,00,47,0.00
2017,01,21,00,48,0.00
2017,01,21,00,49,0.00
2017,01,21,00,50,0.00
2017,01,21,00,51,0.00
2017,01,21,00,52,0.00
2017,01,21,00,53,0.00
2017,01,21,00,54,0.00
2017,01,21,00,55,0.00
2017,01,21,00,56,0.00
2017,01,21,00,57,0.00
2017,01,21,00,58,0.00
2017,01,21,00,59,0.00
2017,01,21,01,00,0.00
2017,01,21,01,01,0.00
2017,01,21,01,02,0.00
2017,01,21,01,03,0.00
2017,01,21,01,04,0.00
2017,01,21,01,05,0.00
2017,01,21,01,06,0.00
2017,01,21,01,07,0.00
2017,01,21,01,08,0.00
2017,01,21,01,09,0.00
2017,01,21,01,10,0.00
2017,01,21,01,11,0.00
2017,01,21,01,12,0.00
2017,01,21,01,13,0.00
2017,01,21,01,14,0.00
2017,01,21,01,15,0.00
2017,01,21,01,16,0.00
2017,01,21,01,17,0.00
2017,01,21,01,18,0.00
2017,01,21,01,19,0.00
2017,01,21,01,20,0.00
2017,01,21,01,21,0.00
2017,01,21,01,22,0.00
2017,01,21,01,23,0.00
2017,01,21,01,24,0.00
2017,01,21,01,25,0.00
2017,01,21,01,26,0.00
2017,01,21,01,27,0.00
2017,01,21,01,28,0.00
2017,01,21,01,29,0.00
2017,01,21,01,30,0.00
2017,01,21,01,31,0.00
2017,01,21,01,32,0.00
2017,01,21,01,33,0.00
2017,01,21,01,34,0.00
2017,01,21,01,35,0.00
2017,01,21,01,36,0.00
2017,01,21,01,37,0.00
2017,01,21,01,38,0.00
2017,01,21,01,39,0.00
2017,01,21,01,40,0.00
2017,01,21,01,41,0.00
2017,01,21,01,42,0.00
2017,01,21,01,43,0.00
2017,01,21,01,44,0.00
2017,01,21,01,45,0.00
2017,01,21,01,46,0.00
2017,01,21,01,47,0.00
2017,01,21,01,48,0.00
2017,01,21,01,49,0.00
2017,01,21,01,50,0.00
2017,01,21,01,51,0.00
2017,01,21,01,52,0.00
2017,01,21,01,53,0.00
2017,01,21,01,54,0.00
2017,01,21,01,55,0.00
2017,01,21,01,56,0.00
2017,01,21,01,57,0.00
2017,01,21,01,58,0.00
2017,01,21,01,59,0.00
2017,01,21,02,00,0.00
2017,01,21,02,01,0.00
2017,01,21,02,02,0.00
2017,01,21,02,03,0.00
2017,01,21,02,04,0.00
2017,01,21,02,05,0.00
2017,01,21,02,06,0.00
2017,01,21,02,07,0.00
2017,01,21,02,08,0.00
2017,01,21,02,09,0.00
2017,01,21,02,10,0.00
2017,01,21,02,11,0.00
2017,01,21,02,12,0.00
2017,01,21,02,13,0.00
2017,01,21,02,14,0.00
2017,01,21,02,15,0.00
2017,01,21,02,16,0.00
2017,01,21,02,17,0.00
2017,01,21,02,18,0.00
2017,01,21,02,19,0.00
2017,01,21,02,20,0.00
2017,01,21,02,21,0.00
2017,01,21,02,22,0.00
2017,01,21,02,23,0.00
2017,01,21,02,24,0.00
2017,01,21,02,25,0.00
2017,01,21,02,26,0.00
2017,01,21,02,27,0.00
2017,01,21,02,28,0.00
2017,01,21,02,29,0.00
2017,01,21,02,30,0.00
2017,01,21,02,31,0.00
2017,01,21,02,32,0.00
2017,01,21,02,33,0.00
2017,01,21,02,34,0.00
2017,01,21,02,35,0.00
2017,01,21,02,36,0.00
2017,01,21,02,37,0.00
2017,01,21,02,38,0.00
2017,01,21,02,39,0.00
2017,01,21,02,40,0.00
2017,01,21,02,41,0.00
2017,01,21,02,42,0.00
2017,01,21,02,43,0.00
2017,01,21,02,44,0.00
2017,01,21,02,45,0.00
2017,01,21,02,46,0.00
2017,01,21,02,47,0.00
2017,01,21,02,48,0.00
2017,01,21,02,49,0.00
2017,01,21,02,50,0.00
2017,01,21,02,51,0.00
2017,01,21,02,52,0.00
2017,01,21,02,53,0.00
2017,01,21,02,54,0.00
2017,01,21,02,55,0.00
2017,01,21,02,56,0.00
2017,01,21,02,57,0.00
2017,01,21,02,58,0.00
2017,01,21,02,59,0.00
2017,01,21,03,00,0.00
2017,01,21,03,01,0.00
2017,01,21,03,02,0.00
2017,01,21,03,03,0.00
2017,01,21,03,04,0.00
2017,01,21,03,05,0.00
2017,01,21,03,06,0.00
2017,01,21,03,07,0.00
2017,01,21,03,08,0.00
2017,01,21,03,09,0.00
2017,01,21,03,10,0.00
2017,01,21,03,11,0.00
2017,01,21,03,12,0.00
2017,01,21,03,13,0.00
2017,01,21,03,14,0.00
2017,01,21,03,15,0.00
2017,01,21,03,16,0.00
2017,01,21,03,17,0.00
2017,01,21,03,18,0.00
2017,01,21,03,19,0.00
2017,01,21,03,20,0.00
2017,01,21,03,21,0.00
2017,01,21,03,22,0.00
2017,01,21,03,23,0.00
2017,01,21,03,24,0.00
2017,01,21,03,25,0.00
2017,01,21,03,26,0.00
2017,01,21,03,27,0.00
2017,01,21,03,28,0.00
2017,01,21,03,29,0.00
2017,01,21,03,30,0.00
2017,01,21,03,31,0.00
2017,01,21,03,32,0.00
2017,01,21,03,33,0.00
2017,01,21,03,34,0.00
2017,01,21,03,35,0.00
2017,01,21,03,36,0.00
2017,01,21,03,37,0.00
2017,01,21,03,38,0.00
2017,01,21,03,39,0.00
2017,01,21,03,40,0.00
2017,01,21,03,41,0.00
2017,01,21,03,42,0.00
2017,01,21,03,43,0.00
2017,01,21,03,44,0.00
2017,01,21,03,45,0.00
2017,01,21,03,46,0.00
2017,01,21,03,47,0.00
2017,01,21,03,48,0.00
2017,01,21,03,49,0.00
2017,01,21,03,50,0.00
2017,01,21,03,51,0.00
2017,01,21,03,52,0.00
2017,01,21,03,53,0.00
2017,01,21,03,54,0.00
2017,01,21,03,55,0.00
2017,01,21,03,56,0.00
2017,01,21,03,57,0.00
2017,01,21,03,58,0.00
2017,01,21,03,59,0.00
2017,01,21,04,00,0.00
2017,01,21,04,01,0.00
2017,01,21,04,02,0.00
2017,01,21,04,03,0.00
2017,01,21,04,04,0.00
2017,01,21,04,05,0.00
2017,01,21,04,06,0.00
2017,01,21,04,07,0.00
2017,01,21,04,08,0.00
2017,01,21,04,09,0.00
2017,01,21,04,10,0.00
2017,01,21,04,11,0.00
2017,01,21,04,12,0.00
2017,01,21,04,13,0.00
2017,01,21,04,14,0.00
2017,01,21,04,15,0.00
2017,01,21,04,16,0.00
2017,01,21,04,17,0.00
2017,01,21,04,18,0.00
2017,01,21,04,19,0.00
2017,01,21,04,20,0.00
2017,01,21,04,21,0.00
2017,01,21,04,22,0.00
2017,01,21,04,23,0.00
2017,01,21,04,24,0.00
2017,01,21,04,25,0.00
2017,01,21,04,26,0.00
2017,01,21,04,27,0.00
2017,01,21,04,28,0.00
2017,01,21,04,29,0.00
2017,01,21,04,30,0.00
2017,01,21,04,31,0.00
2017,01,21,04,32,0.00
2017,01,21,04,33,0.00
2017,01,21,04,34,0.00
2017,01,21,04,35,0.00
2017,01,21,04,36,0.00
2017,01,21,04,37,0.00
2017,01,21,04,38,0.00
2017,01,21,04,39,0.00
2017,01,21,04,40,0.00
2017,01,21,04,41,0.00
2017,01,21,04,42,0.00
2017,01,21,04,43,0.00
2017,01,21,04,44,0.00
2017,01,21,04,45,0.00
2017,01,21,04,46,0.00
2017,01,21,04,47,0.00
2017,01,21,04,48,0.00
2017,01,21,04,49,0.00
2017,01,21,04,50,0.00
2017,01,21,04,51,0.00
2017,01,21,04,52,0.00
2017,01,21,04,53,0.00
2017,01,21,04,54,0.00
2017,01,21,04,55,0.00
2017,01,21,04,56,0.00
2017,01,21,04,57,0.00
2017,01,21,04,58,0.00
2017,01,21,04,59,0.00
2017,01,21,05,00,0.00
2017,01,21,05,01,0.00
2017,01,21,05,02,0.00
2017,01,21,05,03,0.00
2017,01,21,05,04,0.00
2017,01,21,05,05,0.00
2017,01,21,05,06,0.00
2017,01,21,05,07,0.00
2017,01,21,05,08,0.00
2017,01,21,05,09,0.00
2017,01,21,05,10,0.00
2017,01,21,05,11,0.00
2017,01,21,05,12,0.00
2017,01,21,05,13,0.00
2017,01,21,05,14,0.00
2017,01,21,05,15,0.00
2017,01,21,05,16,0.00
2017,01,21,05,17,0.00
2017,01,21,05,18,0.00
2017,01,21,05,19,0.00
2017,01,21,05,20,0.00
2017,01,21,05,21,0.00
2017,01,21,05,22,0.00
2017,01,21,05,23,0.00
2017,01,21,05,24,0.00
2017,01,21,05,25,0.00
2017,01,21,05,26,0.00
2017,01,21,05,27,0.00
2017,01,21,05,28,0.00
2017,01,21,05,29,0.00
2017,01,21,05,30,0.00
2017,01,21,05,31,0.00
2017,01,21,05,32,0.00
2017,01,21,05,33,0.00
2017,01,21,05,34,0.00
2017,01,21,05,35,0.00
2017,01,21,05,36,0.00
2017,01,21,05,37,0.00
2017,01,21,05,38,0.00
2017,01,21,05,39,0.00
2017,01,21,05,40,0.00
2017,01,21,05,41,0.00
2017,01,21,05,42,0.00
2017,01,21,05,43,0.00
2017,01,21,05,44,0.00
2017,01,21,05,45,0.00
2017,01,21,05,46,0.00
2017,01,21,05,47,0.00
2017,01,21,05,48,0.00
2017,01,21,05,49,0.00
2017,01,21,05,50,0.00
2017,01,21,05,51,0.00
2017,01,21,05,52,0.00
2017,01,21,05,53,0.00
2017,01,21,05,54,0.00
2017,01,21,05,55,0.00
2017,01,21,05,56,0.00
2017,01,21,05,57,0.00
2017,01,21,05,58,0.00
2017,01,21,05,59,0.00
2017,01,21,06,00,0.00
2017,01,21,06,01,0.00
2017,01,21,06,02,0.00
2017,01,21,06,03,0.00
2017,01,21,06,04,0.00
2017,01,21,06,05,0.00
2017,01,21,06,06,0.00
2017,01,21,06,07,0.00
2017,01,21,06,08,0.00
2017,01,21,06,09,0.00
2017,01,21,06,10,0.00
2017,01,21,06,11,0.00
2017,01,21,06,12,0.00
2017,01,21,06,13,0.00
2017,01,21,06,14,0.00
2017,01,21,06,15,0.00
2017,01,21,06,16,0.00
2017,01,21,06,17,0.00
2017,01,21,06,18,0.00
2017,01,21,06,19,0.00
2017,01,21,06,20,0.00
2017,01,21,06,21,0.00
2017,01,21,06,22,0.00
2017,01,21,06,23,0.00
2017,01,21,06,24,0.00
2017,01,21,06,25,0.00
2017,01,21,06,26,0.00
2017,01,21,06,27,0.00
2017,01,21,06,28,0.00
2017,01,21,06,29,0.00
2017,01,21,06,30,0.00
2017,01,21,06,31,0.00
2017,01,21,06,32,0.00
2017,01,21,06,33,0.00
2017,01,21,06,34,0.00
2017,01,21,06,35,0.00
2017,01,21,06,36,0.00
2017,01,21,06,37,0.00
2017,01,21,06,38,0.00
2017,01,21,06,39,0.00
2017,01,21,06,40,0.00
2017,01,21,06,41,0.00
2017,01,21,06,42,0.00
2017,01,21,06,43,0.00
2017,01,21,06,44,0.00
2017,01,21,06,45,0.00
2017,01,21,06,46,0.00
2017,01,21,06,47,0.00
2017,01,21,06,48,0.00
2017,01,21,06,49,0.00
2017,01,21,06,50,0.00
2017,01,21,06,51,0.00
2017,01,21,06,52,0.00
2017,01,21,06,53,0.00
2017,01,21,06,54,0.00
2017,01,21,06,55,0.00
2017,01,21,06,56,0.00
2017,01,21,06,57,0.00
2017,01,21,06,58,0.00
2017,01,21,06,59,0.00
2017,01,21,07,00,0.00
2017,01,21,07,01,0.00
2017,01,21,07,02,0.00
2017,01,21,07,03,0.00
2017,01,21,07,04,0.00
2017,01,21,07,05,0.00
2017,01,21,07,06,0.00
2017,01,21,07,07,0.00
2017,01,21,07,08,0.00
2017,01,21,07,09,0.00
2017,01,21,07,10,0.00
2017,01,21,07,11,0.00
2017,01,21,07,12,0.00
2017,01,21,07,13,0.00
2017,01,21,07,14,0.00
2017,01,21,07,15,0.00
2017,01,21,07,16,0.00
2017,01,21,07,17,0.00
2017,01,21,07,18,0.00
2017,01,21,07,19,0.00
2017,01,21,07,20,0.00
2017,01,21,07,21,0.00
2017,01,21,07,22,0.00
2017,01,21,07,23,0.00
2017,01,21,07,24,0.00
2017,01,21,07,25,0.00
2017,01,21,07,26,0.00
2017,01,21,07,27,0.00
2017,01,21,07,28,0.00
2017,01,21,07,29,0.00
2017,01,21,07,30,0.00
2017,01,21,07,31,0.00
2017,01,21,07,32,0.00
2017,01,21,07,33,0.00
2017,01,21,07,34,0.00
2017,01,21,07,35,0.00
2017,01,21,07,36,0.00
2017,01,21,07,37,0.00
2017,01,21,07,38,0.00
2017,01,21,07,39,0.00
2017,01,21,07,40,0.00
2017,01,21,07,41,0.00
2017,01,21,07,42,0.00
2017,01,21,07,43,0.00
2017,01,21,07,44,0.00
2017,01,21,07,45,0.00
2017,01,21,07,46,0.00
2017,01,21,07,47,0.00
2017,01,21,07,48,0.00
2017,01,21,07,49,0.00
2017,01,21,07,50,0.00
2017,01,21,07,51,0.00
2017,01,21,07,52,0.00
2017,01,21,07,53,0.00
2017,01,21,07,54,0.00
2017,01,21,07,55,0.00
2017,01,21,07,56,0.00
2017,01,21,07,57,0.00
2017,01,21,07,58,0.00
2017,01,21,07,59,0.00
2017,01,21,08,00,0.00
2017,01,21,08,01,0.00
2017,01,21,08,02,0.00
2017,01,21,08,03,0.00
2017,01,21,08,04,0.00
2017,01,21,08,05,0.00
2017,01,21,08,06,4.60
2017,01,21,08,07,5.00
2017,01,21,08,08,5.70
2017,01,21,08,09,7.00
2017,01,21,08,10,7.00
2017,01,21,08,11,8.60
2017,01,21,08,12,11.20
2017,01,21,08,13,14.90
2017,01,21,08,14,19.10
2017,01,21,08,15,22.10
2017,01,21,08,16,24.30
2017,01,21,08,17,25.00
2017,01,21,08,18,24.60
2017,01,21,08,19,20.50
2017,01,21,08,20,18.60
2017,01,21,08,21,18.00
2017,01,21,08,22,18.00
2017,01,21,08,23,18.00
2017,01,21,08,24,18.00
2017,01,21,08,25,18.30
2017,01,21,08,26,19.00
2017,01,21,08,27,20.00
2017,01,21,08,28,21.00
2017,01,21,08,29,19.30
2017,01,21,08,30,19.30
2017,01,21,08,31,21.50
2017,01,21,08,32,23.80
2017,01,21,08,33,25.60
2017,01,21,08,34,25.30
2017,01,21,08,35,25.00
2017,01,21,08,36,25.10
2017,01,21,08,37,26.60
2017,01,21,08,38,28.90
2017,01,21,08,39,33.00
2017,01,21,08,40,32.70
2017,01,21,08,41,28.30
2017,01,21,08,42,25.80
2017,01,21,08,43,25.00
2017,01,21,08,44,25.50
2017,01,21,08,45,26.00
2017,01,21,08,46,27.60
2017,01,21,08,47,29.90
2017,01,21,08,48,32.00
2017,01,21,08,49,31.30
2017,01,21,08,50,33.50
2017,01,21,08,51,33.90
2017,01,21,08,52,32.00
2017,01,21,08,53,32.90
2017,01,21,08,54,33.00
2017,01,21,08,55,33.70
2017,01,21,08,56,35.00
2017,01,21,08,57,37.70
2017,01,21,08,58,39.80
2017,01,21,08,59,43.70
2017,01,21,09,00,59.00
2017,01,21,09,01,79.00
2017,01,21,09,02,112.00
2017,01,21,09,03,127.70
2017,01,21,09,04,125.50
2017,01,21,09,05,138.30
2017,01,21,09,06,167.90
2017,01,21,09,07,178.70
2017,01,21,09,08,186.80
2017,01,21,09,09,193.60
2017,01,21,09,10,195.00
2017,01,21,09,11,180.90
2017,01,21,09,12,113.00
2017,01,21,09,13,123.20
2017,01,21,09,14,163.60
2017,01,21,09,15,169.00
2017,01,21,09,16,182.90
2017,01,21,09,17,164.30
2017,01,21,09,18,186.50
2017,01,21,09,19,145.30
2017,01,21,09,20,99.10
2017,01,21,09,21,88.20
2017,01,21,09,22,122.50
2017,01,21,09,23,91.00
2017,01,21,09,24,90.70
2017,01,21,09,25,87.10
2017,01,21,09,26,79.50
2017,01,21,09,27,73.10
2017,01,21,09,28,67.20
2017,01,21,09,29,61.60
2017,01,21,09,30,58.50
2017,01,21,09,31,55.00
2017,01,21,09,32,55.40
2017,01,21,09,33,56.00
2017,01,21,09,34,57.80
2017,01,21,09,35,58.50
2017,01,21,09,36,60.70
2017,01,21,09,37,62.50
2017,01,21,09,38,63.00
2017,01,21,09,39,63.00
2017,01,21,09,40,67.00
2017,01,21,09,41,69.30
2017,01,21,09,42,70.80
2017,01,21,09,43,74.20
2017,01,21,09,44,78.00
2017,01,21,09,45,80.70
2017,01,21,09,46,84.10
2017,01,21,09,47,86.50
2017,01,21,09,48,88.80
2017,01,21,09,49,91.70
2017,01,21,09,50,94.50
2017,01,21,09,51,97.60
2017,01,21,09,52,109.20
2017,01,21,09,53,115.10
2017,01,21,09,54,117.20
2017,01,21,09,55,112.00
2017,01,21,09,56,105.50
2017,01,21,09,57,98.90
2017,01,21,09,58,97.20
2017,01,21,09,59,98.60
2017,01,21,10,00,101.80
2017,01,21,10,01,107.00
2017,01,21,10,02,110.50
2017,01,21,10,03,109.30
2017,01,21,10,04,111.00
2017,01,21,10,05,111.60
2017,01,21,10,06,117.30
2017,01,21,10,07,132.70
2017,01,21,10,08,132.30
2017,01,21,10,09,128.60
2017,01,21,10,10,145.00
2017,01,21,10,11,197.80
2017,01,21,10,12,189.20
2017,01,21,10,13,225.30
2017,01,21,10,14,249.30
2017,01,21,10,15,244.00
2017,01,21,10,16,254.00
2017,01,21,10,17,214.60
2017,01,21,10,18,230.70
2017,01,21,10,19,220.60
2017,01,21,10,20,198.40
2017,01,21,10,21,206.60
2017,01,21,10,22,119.90
2017,01,21,10,23,139.60
2017,01,21,10,24,162.80
2017,01,21,10,25,134.30
2017,01,21,10,26,127.80
2017,01,21,10,27,112.70
2017,01,21,10,28,110.50
2017,01,21,10,29,130.50
2017,01,21,10,30,92.20
2017,01,21,10,31,92.10
2017,01,21,10,32,105.10
2017,01,21,10,33,114.00
2017,01,21,10,34,133.50
2017,01,21,10,35,169.90
2017,01,21,10,36,184.90
2017,01,21,10,37,164.30
2017,01,21,10,38,150.60
2017,01,21,10,39,180.30
2017,01,21,10,40,236.00
2017,01,21,10,41,224.30
2017,01,21,10,42,209.00
2017,01,21,10,43,209.00
2017,01,21,10,44,403.20
2017,01,21,10,45,431.00
2017,01,21,10,46,431.00
2017,01,21,10,47,431.00
2017,01,21,10,48,431.00
2017,01,21,10,49,246.30
2017,01,21,10,50,185.90
2017,01,21,10,51,196.80
2017,01,21,10,52,253.00
2017,01,21,10,53,205.20
2017,01,21,10,54,208.00
2017,01,21,10,55,266.50
2017,01,21,10,56,186.10
2017,01,21,10,57,179.00
2017,01,21,10,58,179.00
2017,01,21,10,59,238.00
2017,01,21,11,00,297.00
2017,01,21,11,01,172.30
2017,01,21,11,02,155.10
2017,01,21,11,03,174.00
2017,01,21,11,04,239.00
2017,01,21,11,05,297.00
2017,01,21,11,06,290.70
2017,01,21,11,07,196.00
2017,01,21,11,08,189.50
2017,01,21,11,09,229.00
2017,01,21,11,10,229.00
2017,01,21,11,11,203.00
2017,01,21,11,12,172.40
2017,01,21,11,13,167.30
2017,01,21,11,14,180.90
2017,01,21,11,15,167.00
2017,01,21,11,16,167.00
2017,01,21,11,17,167.00
2017,01,21,11,18,167.00
2017,01,21,11,19,167.00
2017,01,21,11,20,167.00
2017,01,21,11,21,173.30
2017,01,21,11,22,186.00
2017,01,21,11,23,283.40
2017,01,21,11,24,353.00
2017,01,21,11,25,372.00
2017,01,21,11,26,392.00
2017,01,21,11,27,318.00
2017,01,21,11,28,180.90
2017,01,21,11,29,216.00
2017,01,21,11,30,216.00
2017,01,21,11,31,201.50
2017,01,21,11,32,244.00
2017,01,21,11,33,439.00
2017,01,21,11,34,456.50
2017,01,21,11,35,468.10
2017,01,21,11,36,489.40
2017,01,21,11,37,525.90
2017,01,21,11,38,534.10
2017,01,21,11,39,527.00
2017,01,21,11,40,527.00
2017,01,21,11,41,507.90
2017,01,21,11,42,486.30
2017,01,21,11,43,460.20
2017,01,21,11,44,437.30
2017,01,21,11,45,420.50
2017,01,21,11,46,416.60
2017,01,21,11,47,412.40
2017,01,21,11,48,388.60
2017,01,21,11,49,425.30
2017,01,21,11,50,389.60
2017,01,21,11,51,443.80
2017,01,21,11,52,444.80
2017,01,21,11,53,434.70
2017,01,21,11,54,429.00
2017,01,21,11,55,345.00
2017,01,21,11,56,319.30
2017,01,21,11,57,221.00
2017,01,21,11,58,192.10
2017,01,21,11,59,183.00
2017,01,21,12,00,167.30
2017,01,21,12,01,145.80
2017,01,21,12,02,135.00
2017,01,21,12,03,143.20
2017,01,21,12,04,131.70
2017,01,21,12,05,107.50
2017,01,21,12,06,110.40
2017,01,21,12,07,111.00
2017,01,21,12,08,132.70
2017,01,21,12,09,176.00
2017,01,21,12,10,176.00
2017,01,21,12,11,172.20
2017,01,21,12,12,135.70
2017,01,21,12,13,135.50
2017,01,21,12,14,164.00
2017,01,21,12,15,174.70
2017,01,21,12,16,199.50
2017,01,21,12,17,205.40
2017,01,21,12,18,166.30
2017,01,21,12,19,146.00
2017,01,21,12,20,148.60
2017,01,21,12,21,140.50
2017,01,21,12,22,128.00
2017,01,21,12,23,142.50
2017,01,21,12,24,135.20
2017,01,21,12,25,131.10
2017,01,21,12,26,128.70
2017,01,21,12,27,134.70
2017,01,21,12,28,145.00
2017,01,21,12,29,150.50
2017,01,21,12,30,156.90
2017,01,21,12,31,166.40
2017,01,21,12,32,174.40
2017,01,21,12,33,180.10
2017,01,21,12,34,183.90
2017,01,21,12,35,189.30
2017,01,21,12,36,193.30
2017,01,21,12,37,196.30
2017,01,21,12,38,196.40
2017,01,21,12,39,187.30
2017,01,21,12,40,180.20
2017,01,21,12,41,179.00
2017,01,21,12,42,204.50
2017,01,21,12,43,231.40
2017,01,21,12,44,214.00
2017,01,21,12,45,235.60
2017,01,21,12,46,268.00
2017,01,21,12,47,234.00
2017,01,21,12,48,218.00
2017,01,21,12,49,236.00
2017,01,21,12,50,226.40
2017,01,21,12,51,230.40
2017,01,21,12,52,246.00
2017,01,21,12,53,209.00
2017,01,21,12,54,225.50
2017,01,21,12,55,258.00
2017,01,21,12,56,271.00
2017,01,21,12,57,391.50
2017,01,21,12,58,403.00
2017,01,21,12,59,330.20
2017,01,21,13,00,314.20
2017,01,21,13,01,327.00
2017,01,21,13,02,427.00
2017,01,21,13,03,527.00
2017,01,21,13,04,527.00
2017,01,21,13,05,509.90
2017,01,21,13,06,336.00
2017,01,21,13,07,346.30
2017,01,21,13,08,345.50
2017,01,21,13,09,347.80
2017,01,21,13,10,362.50
2017,01,21,13,11,350.80
2017,01,21,13,12,415.00
2017,01,21,13,13,610.00
2017,01,21,13,14,479.50
2017,01,21,13,15,322.40
2017,01,21,13,16,289.50
2017,01,21,13,17,268.70
2017,01,21,13,18,265.00
2017,01,21,13,19,272.80
2017,01,21,13,20,281.50
2017,01,21,13,21,248.50
2017,01,21,13,22,241.00
2017,01,21,13,23,252.10
2017,01,21,13,24,246.50
2017,01,21,13,25,236.00
2017,01,21,13,26,228.20
2017,01,21,13,27,221.20
2017,01,21,13,28,222.30
2017,01,21,13,29,217.80
2017,01,21,13,30,191.40
2017,01,21,13,31,187.10
2017,01,21,13,32,188.40
2017,01,21,13,33,184.80
2017,01,21,13,34,167.60
2017,01,21,13,35,156.00
2017,01,21,13,36,146.20
2017,01,21,13,37,136.50
2017,01,21,13,38,127.40
2017,01,21,13,39,119.50
2017,01,21,13,40,110.90
2017,01,21,13,41,101.10
2017,01,21,13,42,97.00
2017,01,21,13,43,95.00
2017,01,21,13,44,96.30
2017,01,21,13,45,100.90
2017,01,21,13,46,111.10
2017,01,21,13,47,123.80
2017,01,21,13,48,137.10
2017,01,21,13,49,145.10
2017,01,21,13,50,145.20
2017,01,21,13,51,141.50
2017,01,21,13,52,139.50
2017,01,21,13,53,143.10
2017,01,21,13,54,147.20
2017,01,21,13,55,151.30
2017,01,21,13,56,154.40
2017,01,21,13,57,157.60
2017,01,21,13,58,161.80
2017,01,21,13,59,161.00
2017,01,21,14,00,155.10
2017,01,21,14,01,148.20
2017,01,21,14,02,142.50
2017,01,21,14,03,139.30
2017,01,21,14,04,138.70
2017,01,21,14,05,135.10
2017,01,21,14,06,128.60
2017,01,21,14,07,124.60
2017,01,21,14,08,119.40
2017,01,21,14,09,114.00
2017,01,21,14,10,106.60
2017,01,21,14,11,104.60
2017,01,21,14,12,103.10
2017,01,21,14,13,102.00
2017,01,21,14,14,103.50
2017,01,21,14,15,104.00
2017,01,21,14,16,104.00
2017,01,21,14,17,104.30
2017,01,21,14,18,104.50
2017,01,21,14,19,101.50
2017,01,21,14,20,100.00
2017,01,21,14,21,99.70
2017,01,21,14,22,95.60
2017,01,21,14,23,90.60
2017,01,21,14,24,90.00
2017,01,21,14,25,88.70
2017,01,21,14,26,88.00
2017,01,21,14,27,87.70
2017,01,21,14,28,85.50
2017,01,21,14,29,82.30
2017,01,21,14,30,76.50
2017,01,21,14,31,71.30
2017,01,21,14,32,67.40
2017,01,21,14,33,64.80
2017,01,21,14,34,62.70
2017,01,21,14,35,58.80
2017,01,21,14,36,51.00
2017,01,21,14,37,46.90
2017,01,21,14,38,42.70
2017,01,21,14,39,42.00
2017,01,21,14,40,41.40
2017,01,21,14,41,40.00
2017,01,21,14,42,40.00
2017,01,21,14,43,43.00
2017,01,21,14,44,46.60
2017,01,21,14,45,55.10
2017,01,21,14,46,65.70
2017,01,21,14,47,80.00
2017,01,21,14,48,93.50
2017,01,21,14,49,102.30
2017,01,21,14,50,100.50
2017,01,21,14,51,96.70
2017,01,21,14,52,95.00
2017,01,21,14,53,95.00
2017,01,21,14,54,92.50
2017,01,21,14,55,88.70
2017,01,21,14,56,84.30
2017,01,21,14,57,83.00
2017,01,21,14,58,83.00
2017,01,21,14,59,82.10
2017,01,21,15,00,81.00
2017,01,21,15,01,81.00
2017,01,21,15,02,84.00
2017,01,21,15,03,91.10
2017,01,21,15,04,95.70
2017,01,21,15,05,94.80
2017,01,21,15,06,91.00
2017,01,21,15,07,85.10
2017,01,21,15,08,84.20
2017,01,21,15,09,86.00
2017,01,21,15,10,86.00
2017,01,21,15,11,87.10
2017,01,21,15,12,89.40
2017,01,21,15,13,90.80
2017,01,21,15,14,91.00
2017,01,21,15,15,92.10
2017,01,21,15,16,95.00
2017,01,21,15,17,95.00
2017,01,21,15,18,92.20
2017,01,21,15,19,88.50
2017,01,21,15,20,88.40
2017,01,21,15,21,90.20
2017,01,21,15,22,87.10
2017,01,21,15,23,77.70
2017,01,21,15,24,68.50
2017,01,21,15,25,65.30
2017,01,21,15,26,69.90
2017,01,21,15,27,74.60
2017,01,21,15,28,73.10
2017,01,21,15,29,67.00
2017,01,21,15,30,61.30
2017,01,21,15,31,59.90
2017,01,21,15,32,58.00
2017,01,21,15,33,57.40
2017,01,21,15,34,54.60
2017,01,21,15,35,50.50
2017,01,21,15,36,49.00
2017,01,21,15,37,47.10
2017,01,21,15,38,46.20
2017,01,21,15,39,47.00
2017,01,21,15,40,48.00
2017,01,21,15,41,49.00
2017,01,21,15,42,50.50
2017,01,21,15,43,52.90
2017,01,21,15,44,54.50
2017,01,21,15,45,56.80
2017,01,21,15,46,59.00
2017,01,21,15,47,61.40
2017,01,21,15,48,62.00
2017,01,21,15,49,62.00
2017,01,21,15,50,61.50
2017,01,21,15,51,59.20
2017,01,21,15,52,55.80
2017,01,21,15,53,54.00
2017,01,21,15,54,53.20
2017,01,21,15,55,48.80
2017,01,21,15,56,45.50
2017,01,21,15,57,43.20
2017,01,21,15,58,40.80
2017,01,21,15,59,37.80
2017,01,21,16,00,37.00
2017,01,21,16,01,35.00
2017,01,21,16,02,35.00
2017,01,21,16,03,35.00
2017,01,21,16,04,34.00
2017,01,21,16,05,33.00
2017,01,21,16,06,32.10
2017,01,21,16,07,31.70
2017,01,21,16,08,30.00
2017,01,21,16,09,30.00
2017,01,21,16,10,28.80
2017,01,21,16,11,28.00
2017,01,21,16,12,28.00
2017,01,21,16,13,28.00
2017,01,21,16,14,28.00
2017,01,21,16,15,28.00
2017,01,21,16,16,28.00
2017,01,21,16,17,26.40
2017,01,21,16,18,27.70
2017,01,21,16,19,26.00
2017,01,21,16,20,26.00
2017,01,21,16,21,26.00
2017,01,21,16,22,25.30
2017,01,21,16,23,25.00
2017,01,21,16,24,25.00
2017,01,21,16,25,25.00
2017,01,21,16,26,24.20
2017,01,21,16,27,23.00
2017,01,21,16,28,23.00
2017,01,21,16,29,23.00
2017,01,21,16,30,22.80
2017,01,21,16,31,21.00
2017,01,21,16,32,21.00
2017,01,21,16,33,21.00
2017,01,21,16,34,19.70
2017,01,21,16,35,19.00
2017,01,21,16,36,18.00
2017,01,21,16,37,18.00
2017,01,21,16,38,18.40
2017,01,21,16,39,19.00
2017,01,21,16,40,19.00
2017,01,21,16,41,19.00
2017,01,21,16,42,18.00
2017,01,21,16,43,18.00
2017,01,21,16,44,17.10
2017,01,21,16,45,16.00
2017,01,21,16,46,14.50
2017,01,21,16,47,14.00
2017,01,21,16,48,13.70
2017,01,21,16,49,12.00
2017,01,21,16,50,11.60
2017,01,21,16,51,11.00
2017,01,21,16,52,9.60
2017,01,21,16,53,9.00
2017,01,21,16,54,7.00
2017,01,21,16,55,7.00
2017,01,21,16,56,7.90
2017,01,21,16,57,9.00
2017,01,21,16,58,9.00
2017,01,21,16,59,7.20
2017,01,21,17,00,6.50
2017,01,21,17,01,5.00
2017,01,21,17,02,2.30
2017,01,21,17,03,0.00
2017,01,21,17,04,0.00
2017,01,21,17,05,0.00
2017,01,21,17,06,0.00
2017,01,21,17,07,0.00
2017,01,21,17,08,0.00
2017,01,21,17,09,0.00
2017,01,21,17,10,0.00
2017,01,21,17,11,0.00
2017,01,21,17,12,0.00
2017,01,21,17,13,0.00
2017,01,21,17,14,0.00
2017,01,21,17,15,0.00
2017,01,21,17,16,0.00
2017,01,21,17,17,0.00
2017,01,21,17,18,0.00
2017,01,21,17,19,0.00
2017,01,21,17,20,0.00
2017,01,21,17,21,0.00
2017,01,21,17,22,0.00
2017,01,21,17,23,0.00
2017,01,21,17,24,0.00
2017,01,21,17,25,0.00
2017,01,21,17,26,0.00
2017,01,21,17,27,0.00
2017,01,21,17,28,0.00
2017,01,21,17,29,0.00
2017,01,21,17,30,0.00